Theta_e
332 333 333 333 333 333 332 332 331 330 330 331 332 332 331 331 331 332 333 333 332 330 329 329 331 330 330 329 329 329 330 330 328 327 331 332 330 330 331 331 330 330 330 330 330 331 330 330 329 328 328 329 329 329 328 328 328 327 326 326 327 327 325
332 332 332 332 332 332 332 331 330 330 331 331 332 332 332 332 332 333 333 333 333 331 329 329 331 331 330 329 329 329 330 330 328 327 329 330 330 331 332 332 331 331 330 330 330 330 330 330 330 330 329 329 329 328 328 327 328 327 326 326 326 327 326
333 332 332 332 332 332 332 331 330 330 331 331 331 332 332 332 332 333 333 333 333 331 329 330 330 330 329 328 329 330 330 330 330 329 329 329 330 331 331 332 331 331 331 331 331 331 330 330 330 330 330 329 329 328 327 327 327 327 327 326 326 328 326
334 333 332 332 332 332 331 331 330 331 331 330 331 331 332 331 331 331 332 332 333 330 328 330 330 330 328 326 327 329 330 330 329 329 329 330 331 331 331 332 331 331 331 331 331 331 330 330 330 330 330 329 328 328 328 328 327 327 327 327 326 328 326
332 332 331 331 331 331 331 331 330 331 331 331 330 330 330 330 330 330 330 331 331 329 328 330 330 330 330 328 327 327 329 330 329 329 330 331 331 330 331 332 331 331 331 330 330 330 330 330 330 330 329 328 328 329 329 328 328 327 327 327 327 328 327
330 330 330 330 331 331 331 331 330 331 332 331 329 328 327 328 328 329 330 329 329 329 329 330 330 329 330 329 327 327 329 330 329 328 330 330 330 330 331 332 332 331 331 330 330 330 330 330 330 330 329 328 328 329 328 327 328 328 327 328 328 328 327
330 330 330 330 330 330 330 331 331 331 331 329 327 326 326 326 326 327 329 329 328 329 330 331 330 328 329 328 327 328 329 330 329 328 330 331 330 330 330 331 332 331 331 330 330 331 330 330 330 330 329 328 328 328 328 327 327 328 328 328 328 328 327
330 330 329 329 329 329 330 331 330 331 331 329 327 325 325 326 326 327 328 328 328 328 329 331 330 328 328 327 328 328 329 330 329 329 331 331 330 330 329 330 331 331 330 330 330 330 330 330 330 329 329 328 328 328 328 328 327 328 328 328 328 327 326
330 330 329 329 329 329 330 330 330 331 331 330 329 327 325 325 326 327 328 328 328 328 329 329 329 328 328 328 329 329 329 329 328 328 330 331 330 330 330 331 332 331 331 331 331 331 330 330 329 329 329 328 328 328 328 328 328 327 327 328 328 326 326
329 329 329 329 329 329 329 330 330 330 330 329 328 328 327 326 327 327 329 329 329 329 329 328 328 328 327 327 328 330 330 330 328 328 330 330 330 330 330 330 331 331 331 331 330 330 331 330 330 330 329 329 328 328 328 329 328 328 327 328 328 327 326
328 329 329 329 329 329 330 330 329 328 328 327 327 328 327 327 327 327 328 330 330 330 329 328 328 328 327 326 327 329 330 330 329 329 329 329 330 331 330 330 329 329 330 330 328 329 329 330 330 330 330 330 329 328 328 328 328 328 327 328 328 327 326
328 328 329 329 329 328 329 329 329 329 328 326 326 327 328 327 327 327 328 330 330 330 330 329 327 327 328 328 328 329 329 329 329 329 329 329 330 331 331 331 330 329 328 328 328 328 327 326 329 331 330 330 329 329 329 328 328 327 327 328 327 327 327
327 328 329 329 329 329 329 329 329 329 330 328 325 326 328 328 327 328 328 329 330 330 330 329 328 327 327 328 328 328 328 329 329 329 329 329 330 331 330 329 330 330 329 328 329 329 327 326 328 330 330 330 330 330 329 329 328 327 327 328 328 327 327
324 326 327 328 329 330 330 329 329 329 330 329 327 327 327 327 327 329 330 329 329 329 330 330 328 327 326 326 326 327 327 328 329 330 330 329 330 330 329 328 329 329 329 328 328 329 330 329 329 330 330 330 330 330 329 329 328 327 326 327 327 327 327
320 321 323 325 327 328 329 329 329 329 329 329 329 329 328 327 328 329 330 330 329 329 330 330 329 328 327 326 325 326 327 328 329 329 329 329 329 329 329 329 329 329 328 327 327 329 331 331 330 330 330 330 330 330 329 329 329 328 326 326 326 327 327
318 319 320 321 323 325 327 328 328 329 329 329 329 330 329 329 329 330 330 330 330 329 329 329 329 328 329 328 327 326 326 327 328 328 328 329 329 329 330 331 329 328 326 326 328 330 330 330 330 330 330 330 330 330 329 328 328 327 327 326 325 326 326
318 319 320 320 321 322 325 327 328 328 328 328 329 329 330 330 331 331 331 331 330 329 328 327 326 327 328 328 328 327 326 327 328 327 327 329 330 329 330 330 329 327 325 326 329 330 329 330 331 330 330 330 330 330 329 329 328 327 327 327 325 324 325
317 319 320 320 321 322 323 324 326 327 327 328 329 329 329 330 331 331 331 331 331 330 328 326 325 325 326 328 327 326 327 328 328 326 325 327 329 329 328 329 329 328 327 329 330 330 330 331 331 330 330 329 329 329 329 329 328 327 327 327 325 323 324
315 317 319 320 321 321 322 322 324 326 327 328 328 329 329 329 330 330 330 331 331 330 328 327 325 325 326 327 327 326 328 328 327 326 325 325 328 330 330 330 329 328 330 330 330 330 330 330 330 330 329 329 329 328 329 329 328 328 327 327 325 323 322
313 314 317 319 320 320 321 321 322 324 325 327 328 328 329 329 329 329 330 330 330 330 329 327 325 325 326 326 325 326 327 328 328 327 325 325 329 330 328 329 328 328 330 331 330 331 330 330 330 330 329 329 328 328 329 329 328 327 327 327 326 324 321
312 312 314 316 318 320 320 320 321 322 323 325 326 327 328 328 329 329 329 330 330 330 330 329 327 325 326 326 325 326 328 328 328 327 325 326 329 330 329 329 328 328 329 331 330 330 330 330 330 329 329 329 328 328 329 329 328 327 327 327 326 325 323
311 311 312 313 316 318 319 320 320 321 321 323 325 326 327 328 328 329 329 330 330 329 328 329 328 327 326 326 325 326 327 328 328 327 327 328 329 329 329 328 327 327 328 329 329 328 328 328 327 328 329 328 327 328 328 328 327 327 326 326 326 326 324
310 311 312 312 313 315 317 319 320 320 321 322 323 325 326 327 327 328 329 329 329 329 328 328 328 327 327 326 324 324 326 327 327 327 328 329 327 326 327 326 326 326 327 328 328 327 326 324 323 326 328 327 327 328 328 327 327 327 326 326 326 325 324
309 309 310 311 312 313 314 316 318 320 321 322 322 323 324 325 326 327 328 328 329 330 328 328 327 327 328 326 324 324 326 327 326 327 329 329 326 325 326 326 326 326 326 327 326 326 325 323 323 325 326 325 325 326 327 327 327 327 326 326 326 325 325
308 308 308 309 310 311 312 313 315 317 319 321 322 323 323 324 325 326 328 328 329 329 329 327 326 326 327 326 323 324 327 327 327 328 329 328 326 325 325 325 326 326 326 326 326 325 325 324 324 325 326 325 324 325 326 326 326 327 326 327 326 325 325
307 307 307 307 308 309 310 311 312 314 316 318 319 321 323 324 325 326 327 327 327 328 328 328 327 326 326 325 324 325 327 327 328 327 327 326 326 326 326 326 326 326 325 325 326 326 325 325 325 325 325 325 325 325 325 325 325 325 325 326 325 325 325
306 306 306 306 307 307 308 309 310 311 313 314 316 318 320 322 324 324 325 325 326 326 327 327 327 325 325 325 325 326 327 327 327 326 325 324 325 325 327 327 326 325 325 325 325 324 323 322 321 321 321 322 323 324 325 325 325 324 325 325 326 326 325
306 306 305 306 306 306 307 308 308 309 310 311 313 314 316 319 321 322 323 323 324 325 325 326 327 326 325 324 326 327 327 326 326 325 325 324 323 324 325 325 325 325 325 324 323 321 319 318 318 317 318 319 320 321 323 325 325 325 325 325 325 325 324
305 305 305 305 305 305 306 306 307 307 307 308 309 311 313 315 317 319 320 321 323 324 324 325 326 327 326 324 325 327 327 325 325 326 325 323 322 322 324 325 326 325 324 322 320 318 317 316 316 317 319 320 320 321 324 325 325 325 325 325 325 324 324
305 305 305 305 304 305 305 306 306 306 306 307 308 308 310 311 313 315 317 318 320 322 324 324 325 326 326 325 325 327 327 326 325 325 324 321 320 321 324 325 325 324 322 321 318 317 316 314 315 319 321 322 322 324 325 325 325 325 325 325 325 324 323
304 304 304 304 304 304 304 305 305 305 306 306 307 307 308 309 310 311 313 315 317 319 321 323 324 325 326 326 326 326 326 325 324 324 323 321 320 321 323 324 324 324 322 319 317 316 316 315 316 320 322 323 323 324 324 324 324 324 323 323 323 323 322
304 304 304 304 304 303 303 304 304 305 305 305 306 306 306 307 308 310 311 312 314 316 318 321 322 323 325 326 326 326 325 324 323 323 323 322 322 322 323 323 323 323 321 319 317 317 316 315 318 321 322 322 322 322 322 321 320 320 320 320 319 318 318
304 304 304 304 304 303 303 303 304 304 304 304 305 305 305 305 306 308 309 310 312 313 315 317 319 320 321 324 326 325 323 322 322 323 323 323 323 322 322 322 322 322 320 318 317 317 316 317 319 319 319 319 320 319 319 318 317 317 317 316 316 315 315
303 303 303 303 303 303 303 303 303 303 304 303 304 304 304 304 304 305 307 308 310 311 312 314 316 316 317 321 323 322 321 322 322 322 322 321 322 322 321 322 322 321 320 318 317 318 319 319 319 317 317 317 318 318 317 317 316 316 316 316 316 316 316
302 302 302 302 303 303 303 302 302 302 303 303 303 303 303 304 304 304 305 306 308 309 310 311 312 312 314 318 320 321 321 321 320 320 320 320 321 321 321 321 322 320 319 318 318 320 320 319 319 318 317 318 318 317 317 316 316 316 316 316 315 315 315
301 301 301 301 302 302 302 302 302 301 301 302 303 303 303 303 303 303 304 304 305 306 308 310 309 309 312 316 317 318 319 318 318 320 320 320 320 320 321 321 321 320 319 318 320 320 319 318 318 318 318 318 317 316 316 315 314 313 312 312 311 310 310
301 301 301 301 301 301 301 301 301 301 301 301 301 302 302 302 302 302 302 303 303 304 305 306 307 307 310 313 315 317 317 317 317 318 319 319 320 320 320 321 321 320 319 319 319 319 318 317 317 316 315 315 315 314 313 312 310 308 308 308 307 306 305
Wind_Speed
9 11 13 13 14 15 16 15 15 17 18 19 22 24 25 27 27 27 27 27 27 27 28 28 27 26 24 23 22 22 21 20 21 22 20 20 20 18 18 19 18 14 10 9 9 8 8 9 11 13 12 12 14 15 14 13 12 11 11 9 8 8 7
7 9 10 12 13 13 14 14 13 16 17 18 21 21 21 23 25 25 24 25 25 25 28 29 29 27 25 23 22 22 21 21 22 23 22 21 20 18 18 18 16 14 11 10 9 8 8 9 10 13 14 14 15 15 16 15 13 12 11 10 9 8 8
8 8 9 10 11 12 13 13 13 14 14 15 17 17 17 19 23 26 23 20 20 22 26 29 29 28 25 23 22 21 21 22 23 24 24 22 21 19 18 16 16 14 13 12 11 9 9 9 9 11 15 15 15 15 16 17 14 12 11 11 10 9 9
10 10 11 10 10 11 13 12 12 11 10 10 11 11 13 14 18 23 21 16 16 20 24 27 27 27 25 24 23 22 22 23 24 24 24 23 21 18 16 16 15 15 14 13 12 11 10 10 9 10 13 14 13 13 15 16 15 12 11 11 11 9 9
11 12 12 11 9 10 12 12 11 10 8 7 8 8 9 11 13 16 17 17 18 21 24 26 26 26 26 25 25 25 24 24 24 24 23 23 22 19 17 16 15 15 14 14 12 11 10 10 9 10 11 12 12 12 12 14 14 13 12 11 11 11 11
12 11 10 10 9 9 11 11 11 10 8 8 8 8 9 10 12 14 16 18 20 20 22 24 26 26 25 26 26 27 26 24 25 25 23 23 22 20 18 17 17 16 15 14 12 11 11 11 10 10 11 12 13 12 11 13 13 12 12 12 11 12 12
12 11 10 9 9 9 10 11 11 9 8 7 8 9 10 11 13 14 15 17 19 20 21 23 25 26 26 26 26 26 25 24 25 25 23 22 22 21 20 19 17 17 17 16 14 12 12 11 11 11 11 12 12 12 11 12 13 13 13 13 13 13 13
11 11 11 10 9 10 11 11 11 9 8 8 8 10 11 12 14 15 16 17 18 20 21 22 25 26 26 26 26 25 24 25 25 24 23 24 23 22 21 18 16 17 18 17 16 15 14 12 12 12 12 13 12 12 11 11 13 14 13 13 14 15 14
8 9 10 10 10 10 11 11 11 10 9 8 10 11 11 12 14 15 17 18 18 19 19 21 24 26 26 26 25 24 23 25 25 23 23 24 22 22 21 19 17 17 18 18 17 16 15 13 12 12 13 14 13 13 12 12 14 14 14 13 14 16 16
7 8 9 10 10 10 11 11 12 11 9 9 10 11 12 12 14 16 18 19 19 19 19 21 24 26 27 27 25 23 22 24 25 25 26 25 22 22 22 21 20 19 19 21 21 19 17 15 14 14 14 14 13 13 12 13 14 15 15 15 14 15 16
7 8 9 10 10 11 11 12 12 11 9 9 9 11 12 13 14 16 17 19 20 21 21 23 25 26 27 28 27 24 22 24 26 27 27 25 23 22 21 20 21 21 21 23 24 23 21 19 16 15 15 14 13 13 12 13 15 14 15 16 14 14 16
8 8 9 11 11 11 11 11 12 12 11 10 10 11 12 13 15 16 17 18 20 21 22 24 25 26 26 27 27 26 25 25 27 27 27 25 24 23 22 21 20 20 21 22 23 24 25 22 19 16 15 15 14 14 13 12 13 14 14 15 15 14 15
10 10 11 11 11 12 13 13 12 12 12 12 12 12 13 14 14 16 17 18 21 22 22 24 26 26 26 26 26 27 27 27 26 26 26 26 24 22 24 24 22 22 23 22 20 21 23 23 20 16 15 15 14 14 14 13 12 12 13 13 14 14 15
10 11 12 12 11 12 13 13 14 14 13 13 13 13 14 15 15 16 17 18 21 22 22 24 26 27 26 26 27 27 28 28 27 26 26 26 25 25 25 24 24 25 25 23 20 19 20 20 18 17 16 15 15 15 15 14 12 12 12 12 13 14 15
11 11 11 12 12 13 12 13 15 15 14 13 14 14 15 15 16 16 17 19 20 21 22 24 25 26 26 26 28 28 28 29 28 27 25 25 25 25 24 23 26 26 24 22 20 19 18 18 18 18 17 16 16 16 15 15 14 13 13 13 13 14 16
11 11 11 11 11 13 14 14 14 15 16 15 15 15 15 14 16 17 17 19 21 22 23 24 25 25 24 25 26 27 27 28 28 27 25 25 24 22 21 23 26 25 22 21 20 19 18 18 18 18 17 17 16 15 15 16 15 14 13 13 14 15 17
11 11 12 12 11 12 13 14 15 15 17 18 17 17 16 15 16 17 17 19 22 23 24 25 26 25 24 24 25 26 27 27 29 28 27 26 25 23 23 25 26 24 23 22 22 20 19 19 19 19 18 17 17 16 15 16 16 15 13 13 15 15 17
12 11 11 12 12 12 13 14 16 16 18 19 18 17 17 17 17 17 18 20 22 23 25 26 26 26 24 24 25 26 26 28 30 29 27 26 25 22 23 25 25 23 23 22 22 21 20 20 20 19 18 18 17 16 16 16 16 16 15 15 15 15 16
16 14 12 12 12 12 13 14 16 17 18 18 16 16 17 18 18 18 19 20 22 23 24 25 26 27 26 25 26 26 26 27 29 27 25 25 23 21 22 23 23 23 22 22 22 22 21 21 20 19 19 18 17 17 17 17 17 17 17 16 16 16 16
19 18 15 14 13 13 13 14 15 17 18 18 17 16 17 18 19 20 20 20 21 21 22 25 26 27 27 26 25 25 27 27 27 26 26 25 23 22 22 21 21 23 23 22 22 22 21 21 21 20 19 18 18 18 17 17 17 17 18 19 18 18 17
18 19 17 15 14 14 14 14 15 15 16 17 17 17 18 18 20 22 21 21 21 21 21 23 26 27 28 26 24 25 27 27 26 26 25 23 21 21 20 20 20 21 22 23 23 22 21 22 21 20 20 20 20 19 19 18 18 19 20 21 20 19 18
17 19 19 16 14 14 14 14 15 14 14 15 16 16 17 17 19 21 21 20 22 23 22 21 25 29 28 26 25 26 27 27 27 25 24 23 23 22 22 23 23 22 22 24 24 23 23 22 21 20 21 22 22 22 22 21 20 21 22 22 22 20 20
17 18 20 19 17 14 14 14 14 13 13 14 15 16 17 18 18 19 21 21 22 24 24 23 25 28 29 27 26 26 28 29 28 25 23 23 24 24 23 24 24 24 24 23 22 23 23 23 21 21 21 22 22 22 23 22 21 23 23 24 24 22 20
19 18 19 21 20 17 15 15 14 13 12 13 15 16 18 19 19 19 20 20 21 23 24 25 26 26 27 27 27 28 31 30 27 24 22 23 23 23 23 23 23 24 24 22 22 22 23 23 23 23 22 21 20 21 21 21 22 23 23 22 21 22 22
19 19 19 21 22 21 19 17 15 13 12 13 14 16 17 18 19 20 20 20 20 22 23 25 27 26 26 27 28 30 31 29 27 25 23 23 22 22 23 22 22 23 23 22 22 21 22 22 22 22 22 21 21 21 21 22 21 21 21 19 18 21 24
20 20 21 22 23 25 24 21 18 15 13 12 13 15 16 16 17 18 19 19 19 20 21 24 27 27 27 27 29 32 31 27 25 26 25 23 21 20 20 20 21 23 22 21 22 21 21 20 20 20 20 19 20 20 21 22 21 21 20 16 14 18 21
20 21 24 23 24 27 29 27 24 20 17 14 13 13 15 15 15 15 16 17 17 17 21 25 28 29 29 29 30 33 31 25 23 25 25 23 22 20 20 20 22 23 21 21 22 21 19 18 17 17 17 18 20 21 21 22 22 22 22 17 13 16 18
20 22 25 26 27 30 32 31 29 27 24 21 17 15 14 14 14 14 16 18 19 19 21 24 27 30 31 31 31 32 29 26 25 26 25 23 22 21 22 23 23 22 21 21 20 18 16 16 16 17 18 20 21 21 21 21 21 21 23 20 17 16 16
20 22 25 27 28 31 33 33 33 31 30 27 24 21 17 14 13 14 15 18 20 21 21 22 25 30 31 31 31 31 29 28 28 26 25 24 22 22 23 23 21 20 21 21 18 16 15 15 16 17 19 20 21 20 19 20 20 21 22 22 20 17 15
21 22 24 25 26 30 32 33 33 32 30 28 26 24 21 18 15 13 14 16 18 21 21 21 22 27 30 30 32 33 32 30 29 27 25 24 23 23 23 22 21 21 22 19 16 14 13 14 15 17 18 19 19 19 20 20 21 22 21 21 19 16 15
20 21 21 21 23 26 29 31 31 31 29 26 24 21 19 18 17 15 14 14 15 18 21 21 20 24 28 30 33 35 33 32 31 28 25 24 23 23 23 23 24 24 21 18 15 14 12 12 14 16 17 18 19 19 20 20 20 20 20 19 18 16 16
19 19 19 19 19 21 23 26 28 29 28 27 24 19 16 15 15 14 13 13 13 15 19 20 20 23 27 31 35 36 34 33 31 27 25 25 25 24 25 26 26 24 21 18 16 15 12 12 14 15 16 16 17 18 18 17 17 17 17 17 17 16 16
18 18 18 18 17 18 19 22 24 25 26 27 26 23 20 17 15 13 11 11 11 11 14 17 19 21 25 30 33 32 31 31 28 25 25 26 25 25 26 27 25 23 21 19 17 16 14 13 14 14 14 14 15 15 16 15 14 14 15 15 15 15 15
18 18 18 19 18 17 17 19 20 21 22 23 24 25 24 23 21 18 14 10 8 7 8 11 13 16 21 27 29 27 26 26 24 24 25 25 23 23 25 26 25 25 23 21 19 17 15 14 14 14 14 14 12 12 14 15 14 13 13 14 14 14 14
20 20 20 20 19 18 16 16 18 19 19 19 21 22 24 25 25 24 22 18 14 10 6 3 4 7 13 20 22 22 22 22 22 21 21 20 20 20 23 26 25 24 23 22 20 18 17 16 16 15 14 14 12 12 14 15 15 14 14 14 14 15 14
21 21 21 21 21 20 19 17 16 18 19 19 19 19 20 22 23 25 25 23 22 20 16 10 7 4 7 12 14 14 14 13 14 15 16 18 20 21 24 25 24 23 23 23 21 19 19 18 16 14 13 12 12 13 15 16 15 14 13 12 12 11 10
21 21 21 22 22 22 21 19 17 17 18 19 19 19 19 19 20 22 24 24 24 24 22 20 17 14 11 12 12 9 7 7 8 10 14 18 20 22 24 24 23 23 23 22 21 21 21 19 17 15 15 15 15 16 16 15 14 13 13 12 12 11 10
Wind_Direction
296 290 286 285 284 285 291 296 291 284 279 272 267 264 258 252 248 242 235 237 240 237 235 232 227 223 221 220 220 218 219 219 220 222 223 225 222 214 217 221 220 222 219 209 211 209 205 210 213 217 217 211 209 209 206 207 205 203 207 206 206 209 198
300 293 288 288 290 291 295 297 289 284 283 275 267 262 255 247 242 239 231 228 233 236 236 233 228 223 220 220 221 219 220 220 221 223 224 228 225 213 212 216 215 219 221 218 217 213 214 217 209 204 205 205 207 210 209 207 206 204 206 208 207 211 204
295 292 289 289 293 293 292 290 285 286 285 279 270 255 248 244 236 237 235 220 216 229 237 234 228 223 219 221 224 223 223 223 223 224 221 220 221 214 207 208 208 210 211 215 218 213 214 223 218 204 202 203 205 208 209 207 205 201 204 208 203 207 209
292 292 289 286 287 287 288 286 280 280 280 281 275 251 243 245 235 238 244 232 216 225 235 235 229 222 217 220 226 226 227 228 226 225 219 216 219 215 205 204 207 208 208 211 214 214 214 219 220 209 203 205 206 207 208 206 204 201 202 206 203 204 210
300 295 287 283 280 279 281 281 274 272 275 274 269 260 253 251 243 240 243 239 230 228 234 237 232 225 219 220 225 228 230 229 227 226 223 220 220 214 206 206 207 207 210 214 213 212 214 216 216 209 201 200 202 204 207 203 202 203 201 202 201 201 208
306 299 287 280 278 274 272 272 269 270 276 266 255 263 265 257 252 247 242 239 238 237 238 237 233 228 223 222 225 229 231 228 225 226 225 224 222 216 208 208 208 207 210 213 212 211 213 213 212 210 202 196 196 195 199 199 197 199 200 200 198 200 208
305 304 294 284 282 280 270 263 261 260 268 267 259 264 266 255 248 244 241 238 237 239 240 234 227 223 223 225 228 231 231 228 224 223 223 224 223 217 211 207 206 209 210 209 210 211 212 212 211 207 197 192 195 194 192 193 194 195 198 200 199 203 206
306 307 300 295 292 284 271 262 257 250 252 260 260 263 263 256 248 241 236 235 233 233 235 231 223 220 224 226 230 234 231 228 227 222 221 224 224 222 217 208 205 210 211 209 210 212 212 212 209 206 197 190 192 195 191 191 196 199 200 201 202 207 207
306 301 296 296 290 278 270 264 259 251 250 255 255 258 262 260 258 250 239 233 233 231 231 229 221 220 225 227 232 233 227 228 230 226 225 224 223 223 219 209 207 211 211 210 211 211 213 213 210 207 203 197 194 194 193 194 198 202 202 200 204 209 207
301 295 289 283 275 270 268 263 258 252 250 254 257 259 261 259 257 254 245 235 230 228 227 225 221 222 226 230 234 233 228 231 232 229 229 226 222 226 223 213 210 211 214 214 212 210 210 210 211 209 206 207 204 199 198 201 202 202 200 197 202 208 204
301 299 290 283 275 270 269 268 266 261 252 250 258 262 261 258 253 250 247 237 229 226 225 224 224 225 229 233 237 237 236 236 233 231 231 226 222 225 225 220 215 215 222 222 215 213 211 207 210 209 207 210 212 210 209 211 208 201 198 198 201 205 202
298 294 291 290 285 278 275 275 273 270 263 255 258 263 261 259 255 250 246 237 229 226 225 225 226 226 230 233 236 238 237 236 234 234 233 228 223 222 221 222 219 217 222 222 215 213 215 213 210 209 209 210 213 215 215 220 217 197 192 201 202 201 200
294 289 288 291 292 290 286 283 277 273 271 266 263 263 258 255 254 253 249 240 232 228 225 225 224 224 226 230 234 237 236 234 235 235 232 228 225 223 223 224 222 216 217 220 217 213 215 215 210 207 211 212 212 213 211 221 223 190 180 197 200 199 200
303 293 287 286 285 286 286 287 283 277 272 269 267 263 257 254 252 252 251 245 236 230 226 223 221 221 223 227 230 234 234 233 233 233 233 229 223 223 226 226 223 220 217 217 217 214 213 214 211 208 211 212 212 212 208 214 219 197 186 194 195 196 198
314 304 296 289 281 275 275 277 279 279 275 270 267 264 261 258 256 252 248 244 236 230 227 222 220 220 222 225 229 231 234 234 232 233 234 231 225 222 223 223 221 221 217 212 212 213 213 214 212 211 212 212 212 212 209 210 214 210 203 199 194 194 196
321 310 302 296 286 277 271 268 268 273 274 272 268 264 259 256 257 255 249 243 235 229 226 221 220 221 222 226 230 232 235 234 230 229 228 227 225 220 218 220 219 216 212 208 209 212 213 214 214 214 214 214 212 212 212 211 213 214 210 204 199 197 198
338 319 307 302 295 283 273 265 261 262 266 270 270 266 257 251 251 252 249 243 235 229 226 223 222 224 225 228 231 234 237 234 229 228 225 224 225 221 218 219 215 210 209 208 209 211 212 214 215 213 214 215 213 211 210 210 211 211 210 208 205 203 202
353 335 317 309 303 294 283 271 263 261 261 263 266 266 260 253 248 247 245 242 236 230 227 225 224 225 225 228 231 234 235 231 230 231 228 227 227 221 218 217 208 203 206 208 208 211 212 214 215 214 213 214 213 212 210 209 209 208 211 210 204 199 198
6 353 335 322 313 304 296 284 272 266 261 259 261 261 259 255 251 248 245 242 238 232 227 225 224 225 226 227 230 232 231 228 229 229 225 225 225 218 215 218 209 201 205 208 207 210 212 212 214 214 213 213 212 212 211 210 208 207 212 211 202 195 192
13 5 350 336 327 316 305 295 282 271 265 262 260 257 256 254 251 250 247 243 240 234 228 225 224 225 226 226 228 230 228 225 224 224 221 221 224 221 218 223 218 206 206 209 208 210 212 212 212 213 212 212 212 210 210 210 209 208 212 212 203 197 192
10 6 360 347 333 323 315 305 294 281 270 266 264 261 259 258 255 254 252 247 241 235 230 227 226 225 225 224 226 227 225 220 217 219 218 215 220 222 218 222 221 211 210 211 209 211 213 212 212 211 212 211 209 208 209 209 209 211 213 213 206 199 194
3 4 6 360 342 328 321 314 304 292 277 270 268 264 261 261 260 257 254 250 245 237 232 230 229 227 225 223 223 225 222 218 216 216 214 214 221 224 221 222 221 218 219 218 212 212 216 216 213 211 212 211 207 208 209 206 208 212 213 214 210 200 194
1 2 8 8 357 340 328 321 314 302 286 273 269 267 265 263 262 259 254 252 249 241 235 234 232 230 227 224 224 225 223 220 218 215 213 217 225 228 227 226 223 222 225 225 219 219 222 223 221 218 216 213 208 211 211 206 208 213 213 215 213 203 198
2 1 4 8 6 356 342 330 323 312 295 280 270 267 266 264 263 263 259 254 249 241 237 237 237 233 229 227 228 228 226 221 217 214 214 220 226 229 228 227 225 225 227 226 223 222 222 223 223 222 220 219 216 217 216 213 214 216 215 217 213 202 198
5 3 2 6 8 6 358 345 333 320 306 293 280 269 263 260 257 257 257 255 249 241 236 237 239 235 229 228 231 231 227 220 214 213 217 222 225 228 230 228 225 225 225 223 221 221 219 220 222 222 223 225 225 223 221 219 220 221 222 226 221 210 207
8 7 7 7 8 10 9 1 351 340 326 312 296 280 268 260 254 252 253 254 251 243 236 234 235 233 227 226 232 233 226 217 213 215 219 223 221 221 224 222 221 224 223 219 217 218 218 220 223 225 227 230 231 231 229 226 225 225 227 231 229 226 227
9 9 11 10 9 12 13 11 7 0 350 337 318 298 282 268 259 256 255 254 253 248 241 236 233 230 226 225 229 230 223 213 214 217 218 219 219 217 217 218 222 224 220 215 213 214 215 218 221 224 228 231 233 234 233 231 230 230 230 227 225 236 240
10 11 13 13 12 14 14 14 13 10 5 358 347 331 310 285 270 265 262 259 257 255 252 243 234 228 226 225 227 227 222 213 211 213 212 213 217 219 221 224 223 216 209 208 208 208 212 217 222 226 228 231 234 233 233 232 230 230 232 228 225 235 240
13 14 14 14 15 15 14 14 13 12 9 5 1 353 340 318 293 280 276 268 260 258 257 249 235 226 223 224 223 221 221 218 212 208 210 212 215 219 221 222 220 210 202 203 205 208 216 221 225 229 231 233 235 233 232 231 229 228 232 232 229 233 236
17 16 15 16 16 16 16 16 14 12 8 4 2 359 352 342 327 308 295 283 270 262 258 252 241 228 221 221 220 216 217 220 214 209 211 212 214 218 218 215 215 211 204 201 204 210 217 222 225 228 231 232 231 229 227 227 225 225 227 231 233 232 229
16 16 16 16 16 17 18 19 18 17 13 7 3 359 355 348 339 329 317 300 284 271 261 255 247 234 223 217 216 215 216 219 213 207 209 210 209 214 215 209 209 210 205 201 204 210 214 222 226 226 226 225 223 224 224 223 222 222 223 225 226 224 220
15 16 15 14 14 15 17 19 20 20 21 18 13 8 6 360 347 339 331 316 299 281 268 259 251 242 230 218 213 214 216 216 212 205 206 208 205 209 214 210 205 205 202 200 206 212 215 220 222 220 220 219 219 220 218 215 214 214 211 210 209 206 203
15 16 15 14 13 13 14 17 17 18 22 25 24 21 23 25 18 5 349 330 312 293 277 264 253 247 236 220 212 213 214 214 209 203 204 207 204 207 214 209 199 196 198 200 205 209 211 216 216 211 208 210 213 213 206 198 195 194 193 192 189 184 182
19 19 17 16 14 14 15 18 18 18 20 24 27 29 31 35 35 32 28 14 345 318 297 270 250 243 234 218 207 205 209 212 211 205 204 206 207 210 212 204 193 192 196 198 201 203 202 203 203 199 199 204 210 212 204 192 183 180 182 180 177 177 180
25 24 22 19 17 15 15 17 19 21 22 23 26 29 32 36 39 40 40 40 39 38 24 321 245 224 214 204 196 198 206 209 208 205 204 208 211 211 206 199 193 193 197 198 199 198 194 193 199 205 207 206 205 205 201 192 181 178 180 180 181 183 184
27 26 23 22 21 20 17 16 18 20 23 24 24 24 26 30 35 39 41 42 45 50 54 57 64 99 160 168 171 186 202 205 203 206 211 214 212 206 201 198 196 197 200 200 198 194 192 194 200 203 196 189 188 191 191 186 175 170 172 173 173 172 167
25 25 24 23 23 23 20 18 20 21 21 23 24 23 24 25 28 36 42 45 48 51 55 58 58 61 81 108 127 147 170 188 203 212 213 210 205 198 196 198 198 196 196 196 194 194 195 195 191 184 177 176 180 181 179 173 162 155 155 156 158 160 161